This demonstration page uses our WeatherBlox Daily Observations layout. Learn more.

Left ArrowRight Arrow

Hourly Observations for September 23, 2021

Temp ( °F °C ) Dew Point ( °F °C ) Humidity (%) Winds ( mph kmh ) Pressure ( in mb ) Visibility ( mi km ) Precip ( " mm )
12:59 am 00:59 Cloudy 79 26.1 71 21.7 77 77 SSE 15 24 29.87 1011 10 16 N/A
1:59 am 01:59 Cloudy with Light Rain 77 25 72 22.2 85 85 SSE 14 22 29.85 1011 5 8 0.01 0.25
2:59 am 02:59 Mostly Cloudy 76 24.4 72 22.2 88 88 SSE 12 19 29.83 1010 10 16 0.00 0.00
3:59 am 03:59 Mostly Cloudy 76 24.4 71 21.7 85 85 S 10 17 29.83 1010 10 16 N/A
4:59 am 04:59 Cloudy 75 23.9 70 21.1 84 84 SSE 7 11 29.82 1010 9 14 0.02 0.51
5:59 am 05:59 Cloudy 76 24.4 69 20.6 79 79 SSE 8 13 29.81 1010 9 14 N/A
6:59 am 06:59 Cloudy 77 25 68 20 74 74 SSE 13 20 29.81 1010 9 14 0.01 0.25
7:42 am 07:42 Cloudy with Thunderstorms 76 24.4 58 14.4 54 54 S 14 22 29.83 1010 3 5 0.12 3.05
7:59 am 07:59 Cloudy 76 24.4 60 15.6 58 58 SSE 9 15 29.82 1010 9 14 0.12 3.05
8:59 am 08:59 Cloudy 76 24.4 37 2.8 24 24 S 13 20 29.84 1011 10 16 N/A
9:59 am 09:59 Cloudy 77 25 72 22.2 85 85 S 9 15 29.84 1011 10 16 N/A
10:40 am 10:40 Cloudy 71 21.7 67 19.4 87 87 W 13 20 29.87 1011 10 16 N/A
10:59 am 10:59 Cloudy 70 21.1 66 18.9 87 87 W 13 20 29.88 1012 9 14 N/A
11:59 am 11:59 Cloudy with Light Rain 68 20 64 17.8 87 87 W 9 15 29.89 1012 4 6 0.04 1.02
12:06 pm 12:06 Cloudy 68 20 64 17.8 87 87 W 7 11 29.89 1012 10 16 0.00 0.00
12:56 pm 12:56 Cloudy with Light Rain 69 20.6 66 18.9 90 90 WNW 6 9 29.89 1012 3 5 0.01 0.25
12:59 pm 12:59 Cloudy with Light Rain 69 20.6 66 18.9 90 90 WNW 6 9 29.89 1012 6 10 0.01 0.25
1:59 pm 13:59 Cloudy with Light Rain 69 20.6 64 17.8 84 84 WNW 9 15 29.90 1013 6 10 0.02 0.51
2:59 pm 14:59 Cloudy with Light Rain 67 19.4 62 16.7 84 84 WNW 9 15 29.90 1013 10 16 0.00 0.00
3:59 pm 15:59 Cloudy 67 19.4 62 16.7 84 84 N N/A 29.90 1012 10 16 0.00 0.00
4:59 pm 16:59 Cloudy 69 20.6 63 17.2 81 81 N N/A 29.89 1012 10 16 0.01 0.25
5:59 pm 17:59 Cloudy 69 20.6 63 17.2 81 81 N N/A 29.91 1013 10 16 N/A
6:59 pm 18:59 Mostly Cloudy 69 20.6 62 16.7 78 78 N N/A 29.92 1013 10 16 N/A
7:59 pm 19:59 Mostly Cloudy 68 20 63 17.2 84 84 S 3 6 29.95 1014 10 16 N/A
8:59 pm 20:59 Mostly Cloudy 67 19.4 63 17.2 87 87 S 3 6 29.97 1015 10 16 N/A
9:59 pm 21:59 Mostly Cloudy 69 20.6 62 16.7 78 78 WSW 3 6 29.97 1015 10 16 N/A
10:59 pm 22:59 Cloudy 70 21.1 64 17.8 82 82 W 5 7 29.97 1015 10 16 N/A
11:59 pm 23:59 Cloudy 70 21.1 65 18.3 84 84 W 3 6 29.99 1016 10 16 N/A

Powered by AerisWeather